Welcome to the New NWS' Forecast!
Most changes are behind the scenes, but click here for differences you might notice.
Latest weather observations around

South Lake Tahoe, Lake Tahoe Airport (KTVL)

Using English Units (Switch to International System of Units)
Date/ Time (PDT) Wind (mph) Vis. (mi) Weather Sky Cond. Temp (°F) Rel. Humidity Wind Chill (°F) Heat Index (°F) Pressure Precip. (in)
Air Dwpt 6 hour Altimeter (inHg) Sea level (inHg) 1 hr 3 hr 6 hr
Max Min
Sep 19 03:53   10 Clear CLR 49 32     52%       29.86      
Sep 19 02:53 S 14 10 Clear CLR 50 35     56% 45     29.85      
Sep 19 01:53 SSW 11 10 Clear CLR 50 36     58% 46     29.85      
Sep 19 00:53 7 10 Partly Cloudy SCT038 51 37     59%       29.85      
Sep 18 23:53 S 9 10 Mostly Cloudy SCT034 BKN043 BKN050 52 38     59%       29.85      
Sep 18 22:53 S 13 10 Mostly Cloudy SCT039 BKN048 53 39     59%       29.85      
Sep 18 21:53 S 9 10 Mostly Cloudy SCT042 BKN050 53 39     59%       29.87      
Sep 18 20:53 S 11 10 Mostly Cloudy BKN042 BKN055 54 37     53%       29.88      
Sep 18 19:53   10 Cloudy BKN043 OVC055 55 38     52%       29.88      
Sep 18 18:53 S 13 10 Cloudy BKN041 OVC049 55 40     57%       29.9      
Sep 18 17:53 SSW 11 10 Cloudy SCT036 BKN047 OVC055 56 41     57%       29.9      
Sep 18 16:53 S 20 10 Cloudy and Windy FEW040 BKN050 OVC060 58 41     53%       29.91      
Sep 18 15:53 SSW 13 10 Cloudy BKN042 OVC055 59 41     51%       29.91      
Sep 18 14:53 SSW 13 10 Cloudy SCT043 OVC060 59 39     47%       29.93      
Sep 18 13:53 SSW 11 10 Mostly Cloudy BKN055 61 35     38%       29.95      
Sep 18 12:53 SSW 11 10 Clear CLR 62 29     28%       29.95      
Sep 18 11:53 SSW 11 10 Mostly Clear FEW060 61 26     26%       29.93      
Sep 18 10:53 SSW 11 10 Partly Cloudy SCT070 61 24     24%       29.95      
Sep 18 09:53 SSW 9 10 Clear CLR 60 22     23%       29.93      
Sep 18 08:53 S 9 10 Clear CLR 58 21     24%       29.95      
Sep 18 07:53 S 5 10 Clear CLR 49 30     48% 47     29.97      
Sep 18 06:53 Calm 10 Clear CLR 44 30     58%              
Sep 18 05:53 Calm 10 Clear CLR 41 30     65%              
Sep 18 01:53 Calm 10 Clear CLR 39 32     76%       29.98      
Sep 18 00:53 Calm 10 Clear CLR 40 32     73%       30      
Sep 17 23:53 Calm 10 Clear CLR 42 34     73%       30      
Sep 17 22:53 Calm 10 Clear CLR 45 37     74%       30.01      
Sep 17 21:53 Calm 10 Clear CLR 51 38     61%       30.01      
Sep 17 20:53 SSW 8 10 Clear CLR 54 39     57%       30.02      
Sep 17 19:53 Calm 10 Clear CLR 53 40     61%       30.05      
Sep 17 18:53 SW 3 10 Clear CLR 59 41     51%       30.03      
Sep 17 17:53 SSW 7 10 Clear CLR 63 39     41%       30.01      
Sep 17 16:53 SSW 8 10 Clear CLR 66 35     32%       30      
Sep 17 15:53 SSW 10 10 Clear CLR 67 33     28%       30      
Sep 17 14:53   10 Clear CLR 68 28     22%       30      
Sep 17 13:53 6 10 Clear CLR 67 27     22%       30      
Sep 17 12:53   10 Clear CLR 68 27     21%       30      
Sep 17 11:53 3 10 Clear CLR 65 28     25%     30.14 30.01      
Sep 17 10:53 SSW 13 10 Clear CLR 63 28     27%       30      
Sep 17 09:53 S 11 10 Clear CLR 61 30     31%       30      
Notice The following observation data may not be complete
Sep 17 08:53 Calm 10 Clear CLR   36      %       30      
Sep 17 07:53 Calm 10 Clear CLR 38 33     82%       30.01      
Sep 17 06:53 Calm 10 Clear CLR 34 30     85%       30.01      
Sep 17 05:53 Calm 10 Clear CLR 34 31     88%       29.99      
Sep 17 04:53 Calm 10 Clear CLR 36 32     85%       29.98      
Sep 17 03:53 Calm 10 Clear CLR 36 32     85%       29.98      
Sep 17 02:53 S 3 10 Clear CLR 37 34     89% 35     29.98      
Sep 17 01:53 S 3 10 Clear CLR 39 36     89% 37            
Sep 17 00:53 Calm 10 Clear CLR 42 37     82%              
Sep 16 23:53 SSW 3 10 Clear CLR 44 37     76% 43     30      
Sep 16 22:53 S 3 10 Clear CLR 47 40     76% 46     29.99      
Sep 16 21:53 Calm 10 Clear CLR 50 42     74%       29.98      
Sep 16 20:53 Calm 10 Clear CLR 53 43     69%       30      
Sep 16 19:53 S 7 10 Clear CLR 58 43     57%       30      
Sep 16 18:53 S 7 10 Clear CLR 61 41     48%       29.99      
Sep 16 17:53 SSW 7 10 Mostly Clear FEW065 63 36     37%       29.99      
Sep 16 16:53 S 8 10 Clear CLR 64 36     35%       29.97      
Sep 16 15:53 SW 10 10 Clear CLR 65 34     32%       29.97      
Sep 16 14:53 SW 8 10 Clear CLR 66 33     29%       29.97      
Sep 16 13:53 3 10 Clear CLR 65 35     33%       29.98      
Sep 16 12:53 NNE 7 10 Clear CLR 63 33     33%              
Sep 16 11:53 5 10 Clear CLR 62 30     30%       30      
Sep 16 10:53 5 10 Clear CLR 60 29     31%       29.99      
Sep 16 09:53 NE 3 10 Clear CLR 56 24     29%       30.01      
Sep 16 08:53 S 3 10 Clear CLR 46 34     63% 45     30.04      
Sep 16 07:53 S 3 10 Clear CLR 34 29     82% 31     30.08      
Notice The following observation data may not be complete
Sep 16 06:53 S 5 10 Clear CLR   28      %       30.06      
Notice The following observation data may not be complete
Sep 16 05:53 S 5 10 Clear CLR   28      %       30.03      
Sep 16 04:53 S 3 10 Clear CLR 34 30     85% 31     30.02      
Sep 16 03:53 SSW 3 10 Clear CLR 35 31     85% 32     30.02      
Sep 16 02:53 S 3 10 Clear CLR 38 32     79% 36     30.02      
Notice The following observation data may not be complete
Sep 16 01:53 S 3 10 Clear CLR   34      %       30.02      
Jun 11 19:53 3 10 Clear   35 30     82% 32     29.86 0 0  
Jun 11 18:53 S 9 10 Mostly Cloudy FEW035 BKN045 BKN055 38 26     62% 31     29.84 0    
Jun 11 17:53 S 14 10 Cloudy BKN025 BKN030 OVC045 38 29     70% 30   29.9 29.84 0    
Jun 11 09:53 S 15 10 Mostly Cloudy BKN045 BKN055 46 27     47% 40     29.71      
Jun 10 20:53 S 11 10 Mostly Cloudy SCT029 BKN037 45 33     63% 39     29.79      
Jun 10 16:53 S 18 10 Clear CLR 54 26     34%       29.79      
Jun 09 11:53   5 Light Rain SCT030 BKN037 OVC048 53 48     83%       29.83 0    
Jun 09 09:53   10 Mostly Cloudy SCT036 BKN045 54 40     59%       29.83      
Jun 08 04:53   10 Partly Cloudy SCT110 53 28     38%       29.83      
Jun 07 22:53 SSW 3 10 Clear CLR 54 27     35%       29.9      
Jun 07 09:53   10 Clear CLR 66 37     34%       29.93      
Jun 05 19:53 Calm 10 Clear   61 38     42%       30